Date,TemperatureHighF,TemperatureAvgF,TemperatureLowF,DewpointHighF,DewpointAvgF,DewpointLowF,HumidityHigh,HumidityAvg,HumidityLow,PressureMaxIn,PressureMinIn,WindSpeedMaxMPH,WindSpeedAvgMPH,GustSpeedMaxMPH,PrecipitationSumIn
2013-1-1,43.5,40.3,38.3,38.7,36.8,35.8,96,87,78,30.25,30.22,1,0,4,0.01
2013-1-2,54.1,53.9,53.8,33.8,32.7,31.2,46,44,42,30.17,30.16,3,3,6,0.00
2013-1-3,50.5,41.2,33.2,39.9,36.3,31.3,93,83,67,30.26,30.21,1,0,2,0.00
2013-1-5,47.4,46.3,45.4,46.3,45.2,44.4,97,96,96,30.12,30.08,1,0,1,0.49
2013-1-6,44.9,44.8,44.7,43.8,43.6,42.9,96,95,93,30.14,30.11,1,0,2,0.06
2013-1-7,55.0,53.6,52.5,50.2,49.1,48.0,89,85,80,30.20,30.18,2,1,2,0.01
2013-1-8,55.4,49.1,44.0,47.4,44.8,42.2,94,85,73,30.17,30.15,1,0,4,0.01
2013-1-9,45.2,43.3,41.1,40.6,39.0,37.2,96,85,74,30.13,30.07,2,0,6,0.01
2013-1-10,44.3,43.7,42.7,37.2,34.6,33.1,78,70,65,30.19,30.08,2,1,4,0.00
2013-1-11,55.2,47.7,42.4,40.6,38.4,33.5,85,71,54,30.26,30.14,3,1,9,0.00
2013-1-12,42.5,40.4,36.8,37.1,35.7,33.4,88,83,81,30.19,30.16,0,0,2,0.00
2013-1-14,47.3,33.2,29.2,27.5,24.7,19.7,82,73,34,30.41,30.25,2,0,3,0.00
2013-1-15,50.4,40.7,34.6,31.3,30.1,27.6,86,69,41,30.45,30.43,4,2,7,0.00
2013-1-16,41.8,35.0,32.7,33.4,30.7,29.6,89,85,72,30.46,30.29,1,0,2,0.00
2013-1-17,60.3,58.8,57.5,34.6,33.2,31.6,39,38,36,30.25,30.18,3,2,7,0.00
2013-1-18,60.1,51.3,37.0,38.1,34.6,31.4,87,57,34,30.25,30.19,3,2,5,0.00
2013-1-19,61.0,55.8,40.2,36.8,34.0,30.5,75,45,37,30.26,30.18,5,3,6,0.00
2013-1-20,46.4,40.6,38.0,35.3,32.8,31.7,79,74,65,30.24,30.17,1,1,4,0.00
2013-1-21,44.6,43.0,41.4,37.1,36.5,36.0,81,78,74,30.15,30.13,1,1,5,0.00
2013-1-22,41.3,41.2,41.1,36.3,36.2,36.0,83,82,82,30.13,30.13,1,1,1,0.00
2013-1-24,50.7,49.7,49.0,49.5,48.8,48.2,97,97,95,30.17,30.10,1,0,5,0.00
2013-1-25,58.5,58.3,58.2,53.0,52.8,52.7,82,82,82,30.06,30.06,0,0,0,0.00
2013-1-26,59.3,54.1,47.1,44.5,42.2,39.4,81,65,52,30.09,30.01,3,2,9,0.00
2013-1-27,47.8,46.5,44.9,41.3,38.7,37.1,81,74,70,30.18,30.08,2,1,6,0.00
2013-1-28,56.2,47.3,44.9,41.4,38.8,35.9,81,72,56,30.23,30.17,3,1,8,0.00
2013-1-30,63.9,57.8,41.5,48.1,45.8,39.9,94,66,50,30.35,30.27,2,1,6,0.01
2013-1-31,59.9,45.6,40.1,47.7,41.6,38.5,95,87,63,30.31,30.28,3,0,5,0.01
2013-2-1,61.5,51.0,41.7,48.2,43.6,39.8,93,78,57,30.23,30.21,2,1,5,0.01
2013-2-2,42.9,42.8,42.5,40.7,40.5,40.3,92,92,92,30.25,30.24,0,0,0,0.00
2013-2-3,58.5,49.9,43.2,45.6,42.8,39.8,89,77,62,30.27,30.24,3,0,5,0.00
2013-2-4,47.9,46.7,45.7,46.0,44.4,42.9,94,92,90,30.20,30.12,0,0,1,0.00
2013-2-5,49.9,48.2,46.0,43.3,42.2,40.9,90,80,75,30.17,30.12,1,0,4,0.00
2013-2-6,46.4,41.1,39.8,40.6,38.2,37.5,93,90,80,30.17,30.15,0,0,2,0.00
2013-2-7,55.6,48.4,41.6,48.9,42.9,38.3,93,82,57,30.15,30.05,2,0,2,0.16
2013-2-8,51.4,47.4,42.2,44.3,42.5,40.9,95,83,69,30.03,30.02,2,1,2,0.04
2013-2-10,42.4,40.4,39.4,39.1,37.5,36.2,91,89,88,30.09,30.07,0,0,0,0.00
2013-2-11,39.1,39.0,38.9,36.0,35.8,35.6,89,88,88,30.09,30.09,0,0,0,0.00
2013-2-12,56.0,42.7,36.0,45.6,37.9,33.9,93,84,60,30.37,30.30,3,0,3,0.01
2013-2-14,68.6,68.4,68.3,46.2,43.5,42.5,45,41,39,30.17,30.17,3,2,6,0.01
2013-2-15,51.7,46.0,41.7,42.3,40.8,39.7,93,83,69,30.27,30.22,1,1,3,0.00
2013-2-16,45.2,44.8,44.4,41.3,40.6,40.1,86,85,84,30.23,30.21,1,0,3,0.00
2013-2-17,60.4,44.4,38.9,47.7,40.3,37.0,94,87,59,30.04,29.97,0,0,2,0.01
2013-2-18,52.8,47.0,36.9,44.2,40.9,35.6,97,80,63,30.05,29.98,3,1,10,0.01
2013-2-19,46.6,43.1,38.6,41.1,37.4,33.2,93,81,72,29.97,29.77,2,0,6,0.27
2013-2-20,60.9,53.3,38.3,41.1,38.0,32.9,82,58,45,29.99,29.87,3,2,10,0.00
2013-2-23,48.6,48.2,47.7,36.6,33.8,31.4,63,57,53,30.24,30.23,2,2,4,0.00
2013-2-24,62.4,53.5,46.2,34.9,27.8,21.5,56,38,32,30.25,30.17,4,2,5,0.00
2013-2-26,64.6,63.5,62.6,31.5,31.1,30.7,31,30,28,30.20,30.18,2,2,2,0.00
2013-2-27,51.9,50.4,49.2,44.9,44.4,44.1,83,80,77,30.38,30.36,0,0,6,0.00
2013-2-28,66.8,53.3,48.9,52.6,47.0,44.1,90,80,59,30.44,30.38,4,1,4,0.00
2013-3-1,60.0,53.2,48.8,50.0,47.6,45.7,89,82,69,30.27,30.25,0,0,8,0.00
2013-3-2,53.9,48.8,47.7,48.9,45.8,45.0,91,89,83,30.25,30.10,0,0,2,0.00
2013-3-3,54.0,51.7,46.2,48.3,47.0,43.1,90,84,80,30.11,30.08,3,1,7,0.00
2013-3-5,54.1,52.7,51.6,44.3,44.1,43.9,76,72,69,29.95,29.88,8,5,11,0.01
2013-3-10,52.4,48.4,45.4,42.9,41.3,39.6,81,76,69,30.28,30.26,0,0,1,0.01
2013-3-11,71.0,57.5,44.1,44.0,41.3,39.2,84,60,36,30.28,30.17,2,1,5,0.00
2013-3-13,74.9,74.9,74.9,53.3,53.3,53.3,47,47,47,30.10,30.09,4,4,4,0.00
2013-3-14,67.5,66.9,66.1,42.1,41.2,40.5,41,39,38,30.12,30.10,3,2,8,0.00
2013-3-15,68.6,51.5,43.1,49.4,44.1,40.4,91,78,50,30.14,30.05,3,1,9,0.00
2013-3-16,65.9,61.7,60.2,43.4,42.9,42.3,53,50,44,30.09,30.03,4,4,4,0.01
2013-3-19,46.9,46.5,46.3,43.2,42.9,42.6,88,87,87,30.09,30.09,0,0,0,0.00
2013-4-19,83.6,68.8,63.6,52.3,47.6,46.1,53,47,34,30.10,30.07,6,3,16,0.00
2013-4-20,79.1,68.3,53.0,50.1,45.5,43.0,76,47,29,30.12,29.98,5,2,14,0.00
2013-4-21,90.0,60.9,51.1,53.7,49.7,45.8,85,68,24,30.05,29.93,1,0,2,0.00
2013-4-22,91.5,77.0,54.5,53.0,47.4,41.3,76,41,18,29.97,29.84,5,2,9,0.00
2013-4-23,80.9,63.6,53.1,51.1,40.2,23.8,80,50,13,29.94,29.87,5,1,10,0.00
2013-4-24,61.0,56.1,43.9,49.4,47.3,41.2,90,73,63,29.89,29.87,10,4,10,0.00
2013-4-25,51.9,51.3,50.8,48.5,47.9,47.5,90,88,85,30.01,30.00,2,1,2,0.00
2013-4-26,57.2,48.1,45.5,49.3,44.8,43.1,93,89,75,30.24,30.15,1,0,2,0.00
2013-5-2,86.6,75.6,71.4,37.5,32.7,25.8,29,22,11,30.15,30.08,1,0,2,0.00
2013-5-3,89.3,82.0,66.6,44.6,40.5,37.2,45,25,16,30.00,29.84,4,2,4,0.00
2013-5-4,76.3,70.5,54.5,50.1,47.0,45.1,85,47,33,29.61,29.59,13,8,14,0.00
2013-5-5,58.4,58.2,57.8,51.3,51.2,51.1,79,78,77,29.82,29.80,6,4,32,0.00
2013-5-6,70.6,61.0,58.8,52.8,51.8,50.0,77,72,48,29.97,29.84,7,4,12,0.00
2013-5-7,59.6,59.5,59.3,52.8,52.5,52.3,79,78,77,29.99,29.99,3,2,5,0.00
2013-5-8,50.3,50.0,49.9,47.8,47.5,47.1,91,91,90,30.08,30.07,1,0,6,0.00
2013-5-9,55.8,52.8,49.1,49.0,47.8,46.4,91,83,77,30.18,30.13,1,0,3,0.00
2013-5-10,76.6,53.9,50.6,56.6,48.4,46.6,88,82,50,30.20,30.13,4,0,8,0.00
2013-5-11,86.5,77.6,50.0,59.0,55.7,47.5,92,51,38,30.11,30.04,3,1,5,0.00
2013-5-12,87.1,63.3,50.7,60.2,51.2,43.1,90,71,23,30.15,30.03,2,1,8,0.00
2013-5-13,58.3,58.3,58.3,52.8,52.8,52.8,82,82,82,29.96,29.96,0,0,0,0.00
2013-5-14,83.2,63.8,55.3,55.0,48.8,45.2,75,60,36,30.00,29.92,3,0,7,0.00
2013-5-15,51.5,51.1,50.8,46.8,46.4,46.1,84,84,83,30.00,29.99,1,0,2,0.00
2013-5-16,59.3,57.8,56.0,50.4,49.2,47.5,74,73,72,30.00,30.00,7,4,9,0.00
2013-5-17,70.7,58.5,51.3,48.2,44.9,42.4,76,62,42,30.08,30.01,7,2,13,0.00
2013-5-18,69.5,63.0,52.1,53.6,47.5,44.4,75,58,51,30.13,30.08,6,3,13,0.00
2013-5-19,80.6,67.7,62.0,52.4,46.8,44.3,58,49,28,30.12,29.98,5,2,17,0.00
2013-5-20,84.2,66.9,52.4,51.4,45.5,36.1,81,53,18,30.01,29.91,3,1,10,0.00
2013-5-21,67.4,62.8,53.2,47.6,45.9,44.7,80,56,46,29.99,29.94,9,5,15,0.00
2013-6-18,57.8,57.8,57.8,52.0,52.0,52.0,81,81,81,30.03,30.03,1,1,1,0.00
2013-6-26,77.4,68.2,64.4,62.4,61.5,60.8,88,80,60,30.05,29.98,3,1,3,0.00
2013-6-27,88.4,88.4,88.4,58.1,58.1,58.1,36,36,36,30.05,30.05,3,3,4,0.00
2013-6-28,97.1,76.8,59.7,67.0,62.7,57.4,93,66,37,30.03,29.89,4,1,8,0.00
2013-6-29,85.0,72.2,59.6,63.1,59.4,55.3,87,67,46,29.91,29.90,1,1,2,0.00
2013-6-30,91.8,86.3,78.8,64.6,61.7,58.7,52,44,40,29.79,29.75,4,2,5,0.00
2013-7-1,92.8,78.0,66.6,63.4,59.8,56.9,72,57,37,29.84,29.81,4,1,9,0.00
2013-7-2,81.2,80.1,79.3,55.9,54.8,53.9,44,42,39,29.87,29.87,12,11,17,0.00
2013-7-3,96.1,95.5,94.9,62.3,61.8,61.3,33,33,33,29.79,29.78,5,4,27,0.00
2013-7-4,69.3,68.2,67.2,59.1,59.0,58.7,75,72,70,29.76,29.75,0,0,0,0.00
2013-7-5,75.2,72.5,66.4,55.8,55.0,53.0,62,54,51,29.75,29.71,6,5,12,0.00
2013-7-6,70.3,61.1,58.1,53.5,52.9,52.3,81,75,54,29.82,29.73,7,5,12,0.00
2013-7-7,59.2,58.0,54.7,51.6,51.3,50.9,87,78,75,29.86,29.80,2,1,15,0.00
2013-7-8,63.8,58.7,54.8,54.4,53.1,51.6,90,82,71,29.98,29.88,2,1,7,0.00
2013-7-9,84.2,70.4,53.9,59.4,56.3,51.3,92,64,43,30.02,29.92,1,0,3,0.00
2013-7-10,79.8,66.9,53.9,58.3,54.3,50.7,90,67,39,29.97,29.92,7,3,7,0.00
2013-7-11,69.2,59.8,53.1,56.5,52.4,49.3,87,77,63,29.96,29.93,6,2,11,0.00
2013-7-12,79.4,62.7,54.9,59.1,53.0,50.5,86,73,48,29.92,29.89,4,2,9,0.00
2013-7-13,59.6,59.6,59.6,52.4,52.4,52.4,77,77,77,29.96,29.96,2,2,2,0.00
2013-7-14,81.8,80.8,78.0,57.8,57.2,56.1,47,45,43,29.91,29.89,2,2,3,0.00
2013-7-15,59.2,56.0,52.9,53.1,51.0,49.3,88,84,79,29.94,29.93,4,2,7,0.00
2013-7-16,60.6,57.9,55.7,54.6,52.9,51.6,87,84,80,30.02,29.91,4,2,4,0.00
2013-7-17,80.6,71.3,57.9,59.2,57.1,53.1,84,63,48,30.10,30.02,5,3,10,0.00
2013-7-18,85.5,70.5,53.4,59.7,55.5,50.8,91,64,41,30.04,29.93,3,1,6,0.00
2013-7-19,82.8,71.4,52.6,59.3,56.4,49.8,90,62,45,29.94,29.81,2,0,3,0.00
2013-7-20,79.4,61.3,53.8,56.2,52.5,50.3,89,76,44,29.86,29.72,2,0,4,0.00
2013-7-21,79.8,68.7,55.9,56.4,53.6,51.8,87,62,38,29.88,29.76,7,4,17,0.00
2013-7-22,76.3,75.6,74.8,60.1,59.8,59.4,60,58,56,29.94,29.93,5,4,6,0.00
2013-7-23,80.5,78.4,75.1,59.0,57.7,54.8,57,49,45,29.97,29.95,3,2,3,0.00
2013-7-24,88.1,70.6,55.7,62.5,57.6,53.1,91,68,41,29.98,29.92,3,1,9,0.00
2013-9-11,62.9,62.8,62.8,59.0,58.5,57.9,87,86,84,29.97,29.91,2,2,3,0.00
2013-9-25,59.8,59.4,59.0,46.6,46.4,46.3,63,62,61,29.83,29.83,6,5,6,0.00
2013-9-26,76.7,76.7,76.7,39.2,39.2,39.2,26,26,26,29.90,29.90,2,2,18,0.00
2013-11-20,57.5,57.5,57.4,55.5,55.5,55.4,93,93,93,29.92,29.92,4,4,9,0.00
2013-11-21,51.0,50.8,50.6,49.3,49.2,49.0,95,94,94,29.93,29.92,0,0,11,0.00
2013-11-22,73.5,63.0,51.7,28.2,22.0,13.2,38,25,10,29.97,29.91,4,1,9,0.00
2013-11-23,57.8,56.4,55.0,32.9,32.1,31.0,43,40,36,30.06,30.06,1,0,4,0.00
2013-11-24,63.6,46.4,38.3,45.7,39.1,35.5,91,78,51,30.25,30.13,1,0,4,0.00
2013-11-25,57.5,49.3,44.5,47.0,43.4,41.2,88,81,68,30.28,30.26,0,0,1,0.00
2013-11-27,45.6,45.0,44.3,42.0,41.5,41.0,88,87,87,30.02,30.00,0,0,1,0.00
2013-11-28,46.1,46.1,46.1,43.0,43.0,43.0,89,89,89,29.89,29.89,0,0,2,0.00
2013-11-29,72.7,53.7,43.3,46.5,44.5,41.7,94,75,38,30.18,30.11,1,0,3,0.00
2013-12-1,68.3,50.3,42.7,51.4,45.4,41.1,94,85,54,30.30,30.23,0,0,2,0.00
2013-12-2,42.6,41.6,40.2,41.2,40.1,38.9,96,95,94,30.21,30.16,0,0,1,0.01
2013-12-3,50.0,50.0,49.9,39.8,39.3,39.1,68,67,66,29.93,29.93,2,1,2,0.00
2013-12-6,49.8,41.6,29.7,46.4,38.9,27.7,93,90,87,30.18,30.00,5,2,8,0.26
2013-12-7,48.8,48.6,48.3,29.4,28.9,28.5,47,46,46,30.10,30.10,1,1,6,0.00
2013-12-9,27.8,27.0,26.5,25.0,24.2,23.7,90,89,88,30.38,30.34,0,0,8,0.00
2013-12-10,52.1,40.1,30.1,31.3,29.3,27.3,89,68,42,30.38,30.31,1,0,3,0.00
2013-12-11,61.1,48.8,40.2,34.9,33.1,31.1,74,57,35,30.26,30.19,2,0,5,0.00
2013-12-12,36.9,36.8,36.8,31.6,31.5,31.5,81,81,81,30.22,30.22,0,0,1,0.00
2013-12-13,52.1,41.9,33.8,44.0,37.2,31.7,93,84,73,30.33,30.25,1,0,4,0.00
2013-12-16,69.9,52.6,44.9,37.6,36.6,35.5,75,59,29,30.17,30.14,2,1,5,0.00
2013-12-18,54.4,53.8,53.1,45.6,45.3,45.0,74,73,72,29.96,29.95,0,0,3,0.00
2013-12-20,40.4,35.1,33.1,29.4,27.9,26.6,79,75,64,30.01,29.95,0,0,2,0.00
2013-12-22,68.7,68.2,67.9,40.9,40.8,40.7,37,37,36,30.21,30.20,0,0,3,0.00
2013-12-23,38.8,38.8,38.8,36.9,36.9,36.9,93,93,93,30.37,30.36,0,0,3,0.00
2013-12-24,39.9,39.9,39.8,37.8,37.8,37.7,92,92,92,30.31,30.31,0,0,0,0.00
2013-12-28,62.3,49.3,36.5,43.3,39.4,34.7,93,71,41,30.16,30.04,1,0,4,0.00
2013-12-29,44.8,43.9,43.2,34.1,33.4,32.6,68,66,62,30.17,30.16,0,0,0,0.00
2013-12-30,39.0,38.9,38.8,34.0,33.9,33.8,82,82,82,30.19,30.19,0,0,0,0.00
2013-12-31,67.0,65.7,63.0,40.1,35.6,33.9,43,33,31,30.19,30.16,1,0,2,0.00